Вернуться в каталог

STARLINK-3734

АктивенСвязьVLEO
NORAD 52112·PAYLOAD·🇺🇸 United States

Запущен Mar 19, 2022 с Cape Canaveral Space Force Station

Loading…

Ближайшие Пролёты (ближайшие 24 часа)

TLE

СвежийSource: CelesTrak SupGP

Эпоха: Sep 15, 2026, 01:17 UTC

1 52112C 22029AA  26258.05395833  .00704310  00000+0  23884-1 0  2583
2 52112  53.1595 274.6902 0001267  94.3248  36.2305 15.29641736    11

Отслеживайте STARLINK-3734 в реальном времени с AllMySat

Download on the App Store